Weather in Byelousovo

Russia / Kaluga Oblast     55°05′22″N   36°39′28″E
temp.,
°C
wind,
m/s
gust,
m/s
humid.,
%
clouds,
%
prec.,
mm/h
press.,
hPa
HPBL,
m
12 may, wed
wed1200:00+12se249783 0.1 1025124
03:00+9sse11965 0.1 102614
06:00+9se11920 0.0 102739
09:00+14ene236673 0.0 1026632
12:00+13se1174100 0.1 1024190
15:00+14nne2584100 0.8 1020332
18:00+13ene31097100 1.6 1018520
21:00+10sse399629 5.5 1019462
13 may, thu
thu1300:00+6ese26988 0.0 1020134
03:00+5e399814 0.0 1020215
06:00+8ese4149585 0.0 1019493
09:00+12ese41291100 0.3 1019585
12:00+15ese4877100 1.3 10171054
15:00+15se3678100 2.2 1015758
18:00+12ese1696100 1.7 1014225
21:00+9sse259860 2.1 101694
14 may, fri
fri1400:00+8s22965 0.0 101735
03:00+7sse22965 0.0 101737
06:00+8ese2395100 0.0 101880
09:00+13ese3583100 0.0 1017376
12:00+20ese4662100 0.0 10151040
15:00+17sse41086100 2.6 1014605
18:00+18se3885100 2.8 1012278
21:00+15se239571 3.8 101142
15 may, sat
sat1500:00+14sse2497100 0.4 101173
03:00+14se2396100 1.2 101057
06:00+15sse31197100 1.8 1010399
09:00+18s478287 1.8 1010581
12:00+21sse5869100 0.9 10101264
15:00+20s3675100 3.2 1008830
18:00+19ssw388486 2.3 1008448
21:00+14ssw31093100 4.0 1009226
16 may, sun
sun1600:00+14sw4109699 0.1 1010361
03:00+11sw39975 0.1 1012239
06:00+11sw39945 0.0 1013243
09:00+16sw47765 0.0 1013619
12:00+18sw586231 0.3 10141618
15:00+20wsw575129 0.7 10141971
18:00+19wsw2562100 0.0 10141085
21:00+13s118374 0.0 101511